Location: Unspecified
(0.0000°N, 0.0000°E)
Time: 16:31:13
(UTC+00:00)

Hubble Space Telescope - Pass Details

Date: 16 January 2021
Orbit: 536 x 539 km, 28.5° (Epoch: 24 January)

Event Time Altitude Azimuth Distance (km) Brightness Sun altitude
Exits shadow 05:07:02 15° 245° (WSW) 1,491 2.6 -14.6°
Maximum altitude 05:09:01 20° 209° (SSW) 1,250 2.6 -14.2°
Drops below altitude 10° 05:12:08 10° 160° (SSE) 1,778 4.0 -13.4°
Sets 05:14:50 0° 143° (SE) 2,670 5.4 -12.8°
